User: anonymous   Login
Location: Peebles
(55.6412°N, 3.1714°W)
Time: 07:34:13
(UTC+00:00)
Language:

CSL-04 Debris - Orbit

View from above orbital plane
View from above orbital plane
View from above satellite
View from above satellite

Ground track
Ground track

The orbit data is extracted from the following two-line orbital elements,

1 25733U 99025D   21336.83410123  .00000176  00000-0  11071-3 0  9999
2 25733  98.8921  12.2418 0014118 242.5389 117.4350 14.16521938165200
Epoch (UTC): 02 December 2021 20:01:06
Eccentricity: 0.0014118
inclination: 98.8921°
perigee height: 827 km
apogee height: 847 km
right ascension of ascending node: 12.2418°
argument of perigee: 242.5389°
revolutions per day: 14.16521938
mean anomaly at epoch: 117.4350°
orbit number at epoch: 16520

The dashed part of the orbit path shows where the satellite is in the earth's shadow,  

DLR